Time_in_sec,Mx,My,Mz
1323443070.75265288,-0.49798486,-0.07861228,-0.84783554
1323443070.81279898,-0.49847126,-0.07945910,-0.84734440
1323443070.85256529,-0.49904943,-0.07593891,-0.84791321
1323443070.90453291,-0.49965540,-0.07879344,-0.85202080
1323443070.95172024,-0.50106621,-0.07997871,-0.85163301
1323443071.00456572,-0.50034350,-0.08048241,-0.85043830
1323443071.05581903,-0.49813604,-0.07796798,-0.85020703
1323443071.11249137,-0.49915916,-0.07783973,-0.84988040
1323443071.15257096,-0.49878296,-0.07578763,-0.84987438
1323443071.20149922,-0.49981570,-0.07928132,-0.85016203
1323443071.25261617,-0.49971989,-0.07661870,-0.85043168
1323443071.30164051,-0.49914625,-0.08124781,-0.84780842
1323443071.35355115,-0.49888188,-0.07830542,-0.85190868
1323443071.40454984,-0.50020522,-0.08026718,-0.84800154
1323443071.45261860,-0.50005466,-0.07928266,-0.84979135
1323443071.51422119,-0.49979147,-0.08027571,-0.84759498
1323443071.55653214,-0.49877879,-0.07776798,-0.84551030
1323443071.60150838,-0.50034767,-0.07965951,-0.84814167
1323443071.65354156,-0.49934125,-0.08050933,-0.84884787
1323443071.70350552,-0.49922261,-0.07990454,-0.84897357
1323443071.75352120,-0.49891970,-0.07665400,-0.84782881
1323443071.80458236,-0.49989718,-0.08064138,-0.84721434
1323443071.85753417,-0.49835673,-0.07942231,-0.84969699
1323443071.90462589,-0.50082505,-0.08000123,-0.84970063
1323443071.95255280,-0.49924311,-0.07842769,-0.85141599
1323443072.00548911,-0.49965110,-0.07989320,-0.84963685
1323443072.05339575,-0.49771571,-0.07689063,-0.84955198
1323443072.10457444,-0.49978364,-0.07793527,-0.85170507
1323443072.15352941,-0.49840289,-0.08013827,-0.85058993
1323443072.20456004,-0.49855918,-0.07964875,-0.85098583
1323443072.25381804,-0.49828091,-0.07926908,-0.85289222
1323443072.31255984,-0.50047326,-0.08156826,-0.85056561
1323443072.35250306,-0.49925080,-0.07615461,-0.84900194
1323443072.40550423,-0.50130945,-0.08012347,-0.84908676
1323443072.45352149,-0.49819759,-0.07930841,-0.84917736
1323443072.50554991,-0.49984288,-0.07833324,-0.84825134
1323443072.55476356,-0.49766785,-0.07738292,-0.84877819
1323443072.60451365,-0.49860358,-0.07908321,-0.84715438
1323443072.65285182,-0.49891061,-0.07786366,-0.84781963
1323443072.70452452,-0.49988404,-0.07846963,-0.84671748
1323443072.75263476,-0.49869066,-0.07800292,-0.84627140
1323443072.80553269,-0.49940321,-0.08054440,-0.84539688
1323443072.85301208,-0.49873605,-0.07980616,-0.84728444
1323443072.90508175,-0.49963054,-0.08040374,-0.84707350
1323443072.95750761,-0.49941775,-0.07860896,-0.84541148
1323443073.00566435,-0.50063962,-0.08187190,-0.84443188
1323443073.05353332,-0.49816772,-0.07909595,-0.84636277
1323443073.10552573,-0.49846992,-0.07922947,-0.84484321
1323443073.15267348,-0.49899328,-0.07835451,-0.84705311
1323443073.20549297,-0.49932975,-0.07981022,-0.84629357
1323443073.25266147,-0.49976915,-0.07834729,-0.84696788
1323443073.30465245,-0.49794087,-0.08042102,-0.84710836
1323443073.35353637,-0.49892247,-0.07993831,-0.84601444
1323443073.40566921,-0.49745628,-0.07836614,-0.84748024
1323443073.45759153,-0.49906108,-0.07788186,-0.84590882
1323443073.51254797,-0.49901494,-0.08081311,-0.84319878
1323443073.55368853,-0.50066197,-0.07862969,-0.84215355
1323443073.60406899,-0.49901786,-0.07873564,-0.84526068
1323443073.65254784,-0.49966884,-0.07993671,-0.84541583
1323443073.70457888,-0.49807224,-0.07933229,-0.84699547
1323443073.75350165,-0.49892083,-0.07846567,-0.84807175
1323443073.80473733,-0.49964035,-0.08078768,-0.84502435
1323443073.85757947,-0.49892145,-0.07909295,-0.84589249
1323443073.90165234,-0.49984753,-0.07869472,-0.84837693
1323443073.95259404,-0.49897945,-0.07823636,-0.84679729
1323443074.00155807,-0.49905947,-0.08005643,-0.84614903
1323443074.06440663,-0.49757853,-0.07848707,-0.84735817
1323443074.10169649,-0.49815539,-0.07583692,-0.84574574
1323443074.15351796,-0.49756381,-0.07848988,-0.84710145
1323443074.20246148,-0.49910018,-0.08149818,-0.84703648
1323443074.25760055,-0.49825364,-0.07772742,-0.84995931
1323443074.30547476,-0.49915454,-0.08112544,-0.84793764
1323443074.35256982,-0.50033438,-0.07804486,-0.85224628
1323443074.40154243,-0.49966329,-0.07853872,-0.85194999
1323443074.45360994,-0.49975061,-0.07939107,-0.85130906
1323443074.50458193,-0.49928069,-0.08001427,-0.84999943
1323443074.55575919,-0.49785584,-0.07686392,-0.85199052
1323443074.60156250,-0.49958268,-0.07973857,-0.85296041
1323443074.65257549,-0.49901152,-0.07842495,-0.85191500
1323443074.70533681,-0.49973592,-0.07671300,-0.85299051
1323443074.75257850,-0.49809438,-0.07817062,-0.85404122
1323443074.80149102,-0.49986741,-0.08023779,-0.85118151
1323443074.85254002,-0.49899521,-0.07792144,-0.85383666
1323443074.90558481,-0.49962044,-0.07961058,-0.85360307
1323443074.95361853,-0.49772924,-0.07928045,-0.85235012
1323443075.00553346,-0.49966806,-0.07986653,-0.85219663
1323443075.05256343,-0.49757311,-0.07805540,-0.85401338
1323443075.10518289,-0.49925855,-0.08154190,-0.85433698
1323443075.15363884,-0.50066310,-0.07812645,-0.85571790
1323443075.20555305,-0.49784985,-0.07792875,-0.85428536
1323443075.25320649,-0.49909481,-0.07838562,-0.85562986
1323443075.30553842,-0.50051117,-0.07972570,-0.85326743
1323443075.35350060,-0.49940389,-0.07885677,-0.85653901
1323443075.40467739,-0.49817094,-0.07875998,-0.85544842
1323443075.45263433,-0.49792176,-0.07815663,-0.85556698
1323443075.51357388,-0.50017703,-0.07921245,-0.85645103
1323443075.55263996,-0.49714723,-0.07673753,-0.85323179
1323443075.60549307,-0.50025976,-0.08066962,-0.85580552
1323443075.65365219,-0.49779627,-0.07873762,-0.85798663
1323443075.70503187,-0.49912807,-0.07886246,-0.85626793
1323443075.75229502,-0.49673992,-0.07838904,-0.85767519
1323443075.80566812,-0.50024271,-0.08125340,-0.85784727
1323443075.85351634,-0.50035846,-0.07760757,-0.85941488
1323443075.90555644,-0.49829742,-0.08054776,-0.85787332
1323443075.95293522,-0.49945658,-0.07701140,-0.85949749
1323443076.00550961,-0.49894869,-0.08100057,-0.86020863
1323443076.05258489,-0.49889249,-0.07796804,-0.86112273
1323443076.10478091,-0.49841842,-0.07941413,-0.86210978
1323443076.15368795,-0.50038743,-0.07794099,-0.86222857
1323443076.20245433,-0.49807841,-0.07940861,-0.86298668
1323443076.25759840,-0.49788722,-0.07794865,-0.86401004
1323443076.31350255,-0.50017726,-0.07998762,-0.86335379
1323443076.35254550,-0.49756026,-0.07397794,-0.86235738
1323443076.40549636,-0.49841312,-0.07842536,-0.86416346
1323443076.45377326,-0.49843979,-0.07781631,-0.86455309
1323443076.50552416,-0.50131643,-0.07911250,-0.86495781
1323443076.55413747,-0.49746883,-0.07759569,-0.86347783
1323443076.60569668,-0.49720266,-0.07854243,-0.86575919
1323443076.65251660,-0.49812374,-0.07756464,-0.86581683
1323443076.70560217,-0.49819639,-0.07938612,-0.86504018
1323443076.75365376,-0.49855021,-0.07586260,-0.86623621
1323443076.80549169,-0.49957475,-0.08044498,-0.86651564
1323443076.85264683,-0.49714759,-0.07732157,-0.86691630
1323443076.90473056,-0.49838763,-0.07816519,-0.86595500
1323443076.95354772,-0.49838692,-0.07657159,-0.86801320
1323443077.00618196,-0.49802482,-0.08021748,-0.86668795
1323443077.05360460,-0.49803370,-0.07707519,-0.86645502
1323443077.11352587,-0.49867031,-0.07849713,-0.86865467
1323443077.15264106,-0.49876711,-0.07318728,-0.86741865
1323443077.20150661,-0.49922287,-0.07836480,-0.86919773
1323443077.25347614,-0.49814633,-0.07874481,-0.86862409
1323443077.30550241,-0.49898729,-0.07862784,-0.86739188
1323443077.35552311,-0.49872091,-0.07764194,-0.86943120
1323443077.40150785,-0.49706423,-0.07888431,-0.86792397
1323443077.45252228,-0.49988288,-0.07738989,-0.86924100
1323443077.50150609,-0.49895465,-0.08030171,-0.86929709
1323443077.55351925,-0.49825868,-0.07751548,-0.87043011
1323443077.60150790,-0.49883035,-0.07849008,-0.86917526
1323443077.65253162,-0.49646848,-0.07718955,-0.86867094
1323443077.70279598,-0.49853957,-0.07656594,-0.86840546
1323443077.75366831,-0.49726194,-0.07778294,-0.86896616
1323443077.80463529,-0.49892130,-0.07885856,-0.86853796
1323443077.85641694,-0.49781644,-0.07837499,-0.86963207
1323443077.91337276,-0.49732348,-0.07912336,-0.86793649
1323443077.95264792,-0.49843723,-0.07646465,-0.86660951
1323443078.00549579,-0.49905440,-0.08020879,-0.86648875
1323443078.05251694,-0.49797162,-0.07607380,-0.86978501
1323443078.10463142,-0.49826020,-0.07802180,-0.86825174
1323443078.15351915,-0.49902070,-0.07739011,-0.87008911
1323443078.20555019,-0.49815774,-0.07847762,-0.87105733
1323443078.25655603,-0.49722216,-0.07622023,-0.86807960
1323443078.31254125,-0.49861243,-0.08032005,-0.86787087
1323443078.35261750,-0.49804217,-0.07523826,-0.86864346
1323443078.40549183,-0.49820441,-0.07885454,-0.86964995
1323443078.45253730,-0.49666187,-0.07862564,-0.86995059
1323443078.50464320,-0.49886531,-0.07775866,-0.86969411
1323443078.55366516,-0.49816510,-0.07847621,-0.87118572
1323443078.60451603,-0.49776584,-0.07923017,-0.86885560
1323443078.65651631,-0.49811319,-0.07558710,-0.86992419
1323443078.70555520,-0.49916428,-0.07859411,-0.87047219
1323443078.75367308,-0.49757636,-0.07656198,-0.86975974
1323443078.80551982,-0.49939841,-0.07994853,-0.86791676
1323443078.85251904,-0.49880850,-0.07774604,-0.87097043
1323443078.90465856,-0.49817562,-0.07680656,-0.86889547
1323443078.95356750,-0.49789655,-0.07751418,-0.87092197
1323443079.00466323,-0.49940661,-0.07885984,-0.86792499
1323443079.05257654,-0.49770701,-0.07752686,-0.86988801
1323443079.11288786,-0.49616382,-0.07667068,-0.87236786
1323443079.15359521,-0.49841022,-0.07569816,-0.87057936
1323443079.20549679,-0.49769911,-0.07786730,-0.87205994
1323443079.26489139,-0.49639177,-0.07715729,-0.87186521
1323443079.30568647,-0.49820700,-0.07387812,-0.87134880
1323443079.35743785,-0.49785256,-0.07677436,-0.87233204
1323443079.40473580,-0.49805546,-0.07569545,-0.87119955
1323443079.45759082,-0.49783519,-0.07810639,-0.87219363
1323443079.50484276,-0.49823076,-0.08051717,-0.87258196
1323443079.55364633,-0.49811313,-0.07711052,-0.87464672
1323443079.60476708,-0.49811476,-0.07858316,-0.87258941
1323443079.65267491,-0.49687541,-0.07568593,-0.87330955
1323443079.70468402,-0.49945039,-0.07650956,-0.87293351
1323443079.75355387,-0.49823591,-0.07689242,-0.87222433
1323443079.80461812,-0.49854198,-0.07847471,-0.87095058
1323443079.85256171,-0.49759877,-0.07580952,-0.87232500
1323443079.90463924,-0.49799421,-0.07725397,-0.87259227
1323443079.95264506,-0.49794090,-0.07847206,-0.87181306
1323443080.00152087,-0.49859086,-0.07882777,-0.87184626
1323443080.05274987,-0.49749035,-0.07580674,-0.87270284
1323443080.10469675,-0.50044405,-0.07735325,-0.87221456
1323443080.15350342,-0.50006175,-0.07808054,-0.87244415
1323443080.20456314,-0.49909341,-0.07653070,-0.87125063
1323443080.25760221,-0.49689648,-0.07751724,-0.87163454
1323443080.31252623,-0.49787098,-0.07993489,-0.87077528
1323443080.35262179,-0.49867848,-0.07376125,-0.87048006
1323443080.40152049,-0.49824119,-0.07788119,-0.87017065
1323443080.45357203,-0.49759123,-0.07752548,-0.87013751
1323443080.50156641,-0.49856371,-0.07825243,-0.86903435
1323443080.55366564,-0.49823046,-0.07761821,-0.87221885
1323443080.60600019,-0.49834144,-0.07897266,-0.86978459
1323443080.65253472,-0.49900258,-0.07712854,-0.87200898
1323443080.70558286,-0.49881780,-0.07846902,-0.87122160
1323443080.75658822,-0.49707803,-0.07535526,-0.86999685
1323443080.80552197,-0.49978393,-0.08004273,-0.87011212
1323443080.85357571,-0.49828917,-0.07835522,-0.87106544
1323443080.90457702,-0.49633795,-0.07719099,-0.86866373
1323443080.95353580,-0.49804002,-0.07775186,-0.87118399
1323443081.00226164,-0.49802265,-0.07908388,-0.87104559
1323443081.05351615,-0.49763617,-0.07546345,-0.87066644
1323443081.10576296,-0.49846369,-0.07909359,-0.86966252
1323443081.15352225,-0.49744165,-0.07738631,-0.87204921
1323443081.20556450,-0.49850410,-0.07763638,-0.87018687
1323443081.25252819,-0.49781463,-0.07861692,-0.86963022
1323443081.30276465,-0.49956411,-0.08114831,-0.86868489
1323443081.35349274,-0.49703956,-0.07753685,-0.86959535
1323443081.40454531,-0.49867758,-0.07752941,-0.86866200
1323443081.45232749,-0.49955297,-0.07702006,-0.87024897
1323443081.51254439,-0.49862710,-0.07935092,-0.86800653
1323443081.55254769,-0.49836814,-0.07684019,-0.86545163
1323443081.60508633,-0.49871638,-0.07824677,-0.86942661
1323443081.65357518,-0.49783847,-0.07740445,-0.86989605
1323443081.70566583,-0.49894595,-0.07655881,-0.86868370
1323443081.75353360,-0.49858505,-0.07933549,-0.86953950
1323443081.80472231,-0.49778250,-0.07995176,-0.86923516
1323443081.85757852,-0.49664328,-0.07717968,-0.86944818
1323443081.91293764,-0.49930593,-0.07907373,-0.87073243
1323443081.95255494,-0.49773401,-0.07464615,-0.86773521
1323443082.00549674,-0.49810129,-0.07984053,-0.86797416
1323443082.05302978,-0.49673361,-0.07692088,-0.87099016
1323443082.10465169,-0.49889401,-0.07884032,-0.87032765
1323443082.15752840,-0.49875498,-0.07703149,-0.86994916
1323443082.20566916,-0.49681273,-0.07886191,-0.87034100
1323443082.25353360,-0.49839884,-0.07596536,-0.86814612
1323443082.31351137,-0.49877158,-0.08043396,-0.86839056
1323443082.35536003,-0.49809057,-0.07440693,-0.86711687
1323443082.40552306,-0.49796444,-0.07800784,-0.86989868
1323443082.45254230,-0.49893996,-0.07762364,-0.87097853
1323443082.50457478,-0.49869579,-0.07875730,-0.86686319
1323443082.55350947,-0.49886712,-0.07751673,-0.86969596
1323443082.60455084,-0.49853787,-0.07777418,-0.86852467
1323443082.65751529,-0.49737594,-0.07802624,-0.86871481
1323443082.70558286,-0.49863800,-0.07789934,-0.86801755
1323443082.75264931,-0.49793020,-0.07668566,-0.86913866
1323443082.80573726,-0.49952692,-0.07825638,-0.86768007
1323443082.85253310,-0.49811119,-0.07754359,-0.86786318
1323443082.90454507,-0.49875945,-0.07910755,-0.86801559
1323443082.95437074,-0.49796692,-0.07839319,-0.86772126
1323443083.00558209,-0.49797046,-0.08059022,-0.86578679
1323443083.05689335,-0.49863881,-0.07681205,-0.86789739
1323443083.10152340,-0.49823999,-0.07875040,-0.86798954
1323443083.15256572,-0.49864426,-0.07608626,-0.86790293
1323443083.20151186,-0.49878189,-0.07683166,-0.86585826
1323443083.25255919,-0.49791065,-0.07804154,-0.86669719
1323443083.30154967,-0.49952292,-0.07852218,-0.86537516
1323443083.35380745,-0.49932173,-0.07839284,-0.86638850
1323443083.40164614,-0.49878117,-0.07888526,-0.86609942
1323443083.45368505,-0.49842170,-0.07755474,-0.86647296
1323443083.50136685,-0.49764019,-0.08000232,-0.86449349
1323443083.55251932,-0.49944934,-0.07682166,-0.86615086
1323443083.60151839,-0.49799201,-0.07843529,-0.86362851
1323443083.65351105,-0.49742496,-0.07782219,-0.86500895
1323443083.70456672,-0.49936208,-0.07961652,-0.86497474
1323443083.75353360,-0.49940792,-0.07743352,-0.86550456
1323443083.80255628,-0.50009888,-0.07964019,-0.86194468
1323443083.85757709,-0.49860165,-0.07756732,-0.86507547
1323443083.90530872,-0.49883851,-0.07855885,-0.86252278
1323443083.95265126,-0.49753046,-0.07625523,-0.86438632
1323443084.00549626,-0.49980739,-0.07976965,-0.86141604
1323443084.05351019,-0.49983421,-0.07744604,-0.86386484
1323443084.10457540,-0.49900967,-0.07903284,-0.86329639
1323443084.15752506,-0.49791452,-0.07796689,-0.86222035
1323443084.20467114,-0.49830523,-0.07808354,-0.86224103
1323443084.25352383,-0.49709943,-0.07856210,-0.86396235
1323443084.30454946,-0.49912348,-0.08099071,-0.86098588
1323443084.35265875,-0.49814430,-0.07821157,-0.86171955
1323443084.40549541,-0.49928048,-0.07844759,-0.86114067
1323443084.45251703,-0.49888238,-0.07833234,-0.86099166
1323443084.50463724,-0.50032204,-0.07879899,-0.86119539
1323443084.55353117,-0.49735913,-0.07749581,-0.86155355
1323443084.60409069,-0.49980739,-0.07976965,-0.86141604
1323443084.65757847,-0.49980262,-0.07844184,-0.86116940
1323443084.71308637,-0.49938515,-0.07796791,-0.86063808
1323443084.75367093,-0.50107408,-0.07483361,-0.85793889
1323443084.80552053,-0.50046796,-0.07942202,-0.85927999
1323443084.85365295,-0.49927309,-0.07844900,-0.86101228
1323443084.90468001,-0.49922350,-0.08014954,-0.86035776
1323443084.95350480,-0.49947327,-0.07773298,-0.85987705
1323443085.00464797,-0.50168437,-0.07976355,-0.86011201
1323443085.05752373,-0.49829951,-0.07955758,-0.86005533
1323443085.11354995,-0.49993935,-0.07930821,-0.85912383
1323443085.15366340,-0.49893203,-0.07510838,-0.85692364
1323443085.20549607,-0.49902546,-0.07835195,-0.85895246
1323443085.25254583,-0.49810511,-0.07727614,-0.85865372
1323443085.30465579,-0.49958834,-0.07978795,-0.85986871
1323443085.35355234,-0.49837834,-0.07859967,-0.85904306
1323443085.40466619,-0.49976185,-0.07968098,-0.85834384
1323443085.45351958,-0.50030977,-0.07918715,-0.85876125
1323443085.50562572,-0.49817780,-0.07909761,-0.85787708
1323443085.55366111,-0.49860656,-0.07833803,-0.86072057
1323443085.61352515,-0.49986643,-0.07823499,-0.85772026
1323443085.65264988,-0.49891949,-0.07508733,-0.85896999
1323443085.70565248,-0.49805370,-0.07921861,-0.85799736
1323443085.75359869,-0.49838197,-0.07811581,-0.85904670
1323443085.80280900,-0.49993199,-0.07930962,-0.85899550
1323443085.85752749,-0.49761540,-0.07884601,-0.85938317
1323443085.90552592,-0.50163990,-0.07783934,-0.85909986
1323443085.95255685,-0.49816924,-0.07881077,-0.86222833
1323443086.00151825,-0.49809512,-0.07860676,-0.85864365
1323443086.05252719,-0.49918297,-0.07699323,-0.86152947
1323443086.10454535,-0.49817833,-0.07760112,-0.86223751
1323443086.15364957,-0.49948838,-0.07794823,-0.86243498
1323443086.20163989,-0.50067639,-0.08010706,-0.86299658
1323443086.25251818,-0.49821532,-0.07856041,-0.86300027
1323443086.30544734,-0.50023407,-0.08000024,-0.86207747
1323443086.35357857,-0.49877423,-0.07758132,-0.86354971
1323443086.40151858,-0.49960631,-0.08060663,-0.86255038
1323443086.45257330,-0.49931964,-0.07938302,-0.86420649
1323443086.50156999,-0.50064212,-0.07878487,-0.86223656
1323443086.55352712,-0.49810809,-0.07768842,-0.86555922
1323443086.60170531,-0.49868056,-0.07757573,-0.86418426
1323443086.65355587,-0.49787703,-0.07734664,-0.86375791
1323443086.71325588,-0.49983251,-0.07865429,-0.86398399
1323443086.75390553,-0.49951586,-0.07625191,-0.86270446
1323443086.80549359,-0.49913940,-0.08011869,-0.86342371
1323443086.85351181,-0.49883696,-0.07805253,-0.86470115
1323443086.90557504,-0.49982795,-0.07925912,-0.86397946
1323443086.95751929,-0.49852052,-0.07758278,-0.86366367
1323443087.00556374,-0.50073445,-0.08021678,-0.86402243
1323443087.05256009,-0.49851638,-0.07840569,-0.86596030
1323443087.11311626,-0.49925709,-0.07719725,-0.86511415
1323443087.15264678,-0.49918950,-0.07443190,-0.86359507
1323443087.20551968,-0.49952838,-0.07779638,-0.86538064
1323443087.25252318,-0.49918836,-0.07779086,-0.86625755
1323443087.30452800,-0.49966985,-0.07999057,-0.86358172
1323443087.35351801,-0.49808586,-0.07672632,-0.86505318
1323443087.40450478,-0.50015163,-0.07876114,-0.86502427
1323443087.45348930,-0.49905562,-0.07781616,-0.86394727
1323443087.50453115,-0.50036395,-0.07937152,-0.86426395
1323443087.55256796,-0.49831781,-0.07694714,-0.86685538
1323443087.60549378,-0.49835169,-0.07805125,-0.86531413
1323443087.65352702,-0.49951929,-0.07900604,-0.86537153
1323443087.70554471,-0.50008011,-0.07875133,-0.86604381
1323443087.75353479,-0.49903378,-0.07707213,-0.86574244
1323443087.80450940,-0.49828899,-0.08122724,-0.86234558
1323443087.85351396,-0.49946794,-0.07826763,-0.86665326
1323443087.91252041,-0.50011599,-0.07789895,-0.86656362
1323443087.95252609,-0.49846172,-0.07587946,-0.86469609
1323443088.00549555,-0.50173491,-0.08043178,-0.86561108
1323443088.05366349,-0.49616745,-0.07734428,-0.86571085
1323443088.10464811,-0.49889672,-0.07963488,-0.86366969
1323443088.15388799,-0.50105888,-0.07766519,-0.86482608
1323443088.20463228,-0.49800533,-0.07889248,-0.86618459
1323443088.25656867,-0.50073099,-0.07898607,-0.86607796
1323443088.30550528,-0.49884599,-0.07952376,-0.86277217
1323443088.35263181,-0.49923041,-0.07780629,-0.86472458
1323443088.40551925,-0.49993950,-0.07911707,-0.86590552
1323443088.45354199,-0.49963799,-0.08057715,-0.86536682
1323443088.50454617,-0.50020665,-0.07901569,-0.86374611
1323443088.55366898,-0.49963304,-0.07731671,-0.86487812
1323443088.60553241,-0.49839100,-0.07842958,-0.86377841
1323443088.65601850,-0.49886012,-0.07889367,-0.86520815
1323443088.70154309,-0.49831957,-0.07938609,-0.86491907
